This demonstration page uses our WeatherBlox Daily Observations layout. Learn more.

Left ArrowRight Arrow

Hourly Observations for February 11, 2022

Temp ( °F °C ) Dew Point ( °F °C ) Humidity (%) Winds ( mph kmh ) Pressure ( in mb ) Visibility ( mi km ) Precip ( " mm )
12:53 am 00:53 Mostly Clear 35 1.7 25 -3.9 67 67 WNW 10 17 30.12 1020 10 16 0.00 0.00
1:53 am 01:53 Clear 33 0.6 24 -4.4 70 70 W 10 17 30.15 1021 10 16 0.00 0.00
2:53 am 02:53 Partly Cloudy 33 0.6 25 -3.9 72 72 W 14 22 30.19 1023 10 16 0.00 0.00
3:53 am 03:53 Clear 31 -0.6 24 -4.4 76 76 W 10 17 30.22 1023 10 16 0.00 0.00
4:53 am 04:53 Clear 31 -0.6 25 -3.9 79 79 W 10 17 30.26 1025 10 16 0.00 0.00
5:53 am 05:53 Partly Cloudy 31 -0.6 25 -3.9 79 79 WNW 9 15 30.30 1026 10 16 0.00 0.00
6:53 am 06:53 Mostly Clear 30 -1.1 25 -3.9 82 82 WNW 8 13 30.32 1027 10 16 0.00 0.00
7:53 am 07:53 Mostly Cloudy 31 -0.6 26 -3.3 82 82 NW 12 19 30.38 1029 10 16 0.00 0.00
8:53 am 08:53 Cloudy 32 0 26 -3.3 79 79 NW 15 24 30.42 1030 10 16 0.00 0.00
9:53 am 09:53 Cloudy 31 -0.6 26 -3.3 82 82 WNW 18 30 30.44 1031 10 16 0.00 0.00
10:53 am 10:53 Mostly Sunny 33 0.6 25 -3.9 72 72 NW 15 24 30.46 1032 10 16 0.00 0.00
11:53 am 11:53 Mostly Cloudy 34 1.1 21 -6.1 59 59 NW 20 31 30.47 1032 9 14 0.00 0.00
12:53 pm 12:53 Partly Cloudy 35 1.7 21 -6.1 57 57 NW 16 26 30.48 1032 10 16 0.00 0.00
1:53 pm 13:53 Mostly Cloudy 32 0 18 -7.8 56 56 NNW 21 33 30.49 1033 10 16 0.00 0.00
2:53 pm 14:53 Mostly Cloudy 34 1.1 16 -8.9 48 48 NW 17 28 30.51 1033 10 16 0.00 0.00
3:53 pm 15:53 Sunny 33 0.6 10 -12.2 38 38 NNW 20 31 30.53 1034 10 16 0.00 0.00
4:53 pm 16:53 Sunny 32 0 6 -14.4 33 33 NW 17 28 30.54 1034 10 16 0.00 0.00
5:53 pm 17:53 Clear 26 -3.3 7 -13.9 44 44 W 8 13 30.57 1035 10 16 0.00 0.00
6:53 pm 18:53 Clear 22 -5.6 10 -12.2 60 60 W 9 15 30.57 1035 10 16 0.00 0.00
7:53 pm 19:53 Clear 19 -7.2 12 -11.1 74 74 WSW 8 13 30.57 1035 10 16 0.00 0.00
8:53 pm 20:53 Clear 19 -7.2 12 -11.1 74 74 SW 9 15 30.54 1034 10 16 0.00 0.00
9:53 pm 21:53 Clear 18 -7.8 12 -11.1 77 77 WSW 7 11 30.52 1034 10 16 0.00 0.00
10:53 pm 22:53 Clear 21 -6.1 12 -11.1 68 68 SW 13 20 30.49 1032 10 16 0.00 0.00
11:53 pm 23:53 Clear 21 -6.1 12 -11.1 68 68 WSW 5 7 30.45 1031 10 16 0.00 0.00

Powered by AerisWeather